SCP
0 0 0 0 0 0 0 0 0 0 0 0 0 0 0 0 0 0 0 0 0 0 0 0 0 0 0 0 0 0 0 0 0 0 0 0 0 0 0 0 0 0 0
0 0 0 0 0 0 0 0 0 0 0 0 0 0 0 0 0 0 0 0 0 0 0 0 0 0 0 0 0 0 0 0 0 0 0 0 0 0 0 0 0 0 0
0 0 0 0 0 0 0 0 0 0 0 0 0 0 0 0 0 0 0 0 0 0 0 0 0 0 0 0 0 0 0 0 0 0 0 0 0 0 0 0 0 0 0
0 0 0 0 0 0 0 0 0 0 0 0 0 0 0 0 0 0 0 0 0 0 0 0 0 0 0 0 0 0 0 0 0 0 0 0 0 0 0 0 0 0 0
0 0 0 0 0 0 0 0 0 0 0 0 0 0 0 0 0 0 0 0 0 0 0 0 0 0 0 0 0 0 0 0 0 0 0 0 0 0 0 0 0 0 0
0 0 0 0 0 0 0 0 0 0 0 0 0 0 0 0 0 0 0 0 0 0 0 0 0 0 0 0 0 0 0 0 0 0 0 0 0 0 0 0 0 0 0
0 0 0 0 0 0 0 0 0 0 0 0 0 0 0 0 0 0 0 0 0 0 0 0 0 0 0 0 0 0 0 0 0 0 0 0 0 0 0 0 0 0 0
0 0 0 0 0 0 0 0 0 0 0 0 0 0 0 0 0 0 0 0 0 0 0 0 0 0 0 0 0 0 0 0 0 0 0 0 0 0 0 0 0 0 0
0 0 0 0 0 0 0 0 0 0 0 0 0 0 0 0 0 0 0 0 0 0 0 0 0 0 0 0 0 0 0 0 0 0 0 0 0 0 0 0 0 0 0
0 0 0 0 0 0 0 0 0 0 0 0 0 0 0 0 0 0 0 0 0 0 0 0 0 0 0 0 0 0 0 0 0 0 0 0 0 0 0 0 0 0 0
0 0 0 0 0 0 0 0 0 0 0 0 0 0 0 0 0 0 0 0 0 0 0 0 0 0 0 0 0 0 0 0 0 0 0 0 0 0 0 0 0 0 0
0 0 0 0 0 0 0 0 0 0 0 0 0 0 0 0 0 0 0 0 0 0 0 0 0 0 0 0 0 0 0 0 0 0 0 0 0 0 0 0 0 0 0
0 0 0 0 0 0 0 0 0 0 0 0 0 0 0 0 0 0 0 0 0 0 0 0 0 0 0 0 0 0 0 0 0 0 0 0 0 0 0 0 0 0 0
0 0 0 0 0 0 0 0 0 0 0 0 0 0 0 0 0 0 0 0 0 0 0 0 0 0 0 0 0 0 0 0 0 0 0 0 0 0 0 0 0 0 0
0 0 0 0 0 0 0 0 0 0 0 0 0 0 0 0 0 0 0 0 0 0 0 0 0 0 0 0 0 0 0 0 0 0 0 0 0 0 0 0 0 0 0
0 0 0 0 0 0 0 0 0 0 0 0 0 0 0 0 0 0 0 0 0 0 0 0 0 0 0 0 0 0 0 0 0 0 0 0 0 0 0 0 0 0 0
0 0 0 0 0 0 0 0 0 0 0 0 0 0 0 0 0 0 0 0 0 0 0 0 0 0 0 0 0 0 0 0 0 0 0 0 0 0 0 0 0 0 0
0 0 0 0 0 0 0 0 0 0 0 0 0 0 0 0 0 0 0 0 0 0 0 0 0 0 0 0 0 0 0 0 0 0 0 0 0 0 0 0 0 0 0
0 0 0 0 0 0 0 0 0 0 0 0 0 0 0 0 0 0 0 0 0 0 0 0 0 0 0 0 0 0 0 0 0 0 0 0 0 0 0 0 0 0 0
0 0 0 0 0 0 0 0 0 0 0 0 0 0 0 0 0 0 0 0 0 0 0 0 0 0 0 0 0 0 0 0 0 0 0 0 0 0 0 0 0 0 0
0 0 0 0 0 0 0 0 0 0 0 0 0 0 0 0 0 0 0 0 0 0 0 0 0 0 0 0 0 0 0 0 0 0 0 0 0 0 0 0 0 0 0
0 0 0 0 0 0 0 0 0 0 0 0 0 0 0 0 0 0 0 0 0 0 0 0 0 0 0 0 0 0 0 0 0 0 0 0 0 0 0 0 0 0 0
0 0 0 0 0 0 0 0 0 0 0 0 0 0 0 0 0 0 0 0 0 0 0 0 0 0 0 0 0 0 0 0 0 0 0 0 0 0 0 0 0 0 0
0 0 0 0 0 0 0 0 0 0 0 0 0 0 0 0 0 0 0 0 0 0 0 0 0 0 0 0 0 0 0 0 0 0 0 0 0 0 0 0 0 0 0
0 0 0 0 0 0 0 0 0 0 0 0 0 0 0 0 0 0 0 0 0 0 0 0 0 0 0 0 0 0 0 0 0 0 0 0 0 0 0 0 0 0 0
0 0 0 0 0 0 0 0 0 0 0 0 0 0 0 0 0 0 0 0 0 0 0 0 0 0 0 0 0 0 0 0 0 0 0 0 0 0 0 0 0 0 0
Wind_Speed
1 1 6 9 10 12 13 13 14 14 14 14 14 14 14 14 13 13 12 12 11 11 10 10 10 9 9 9 9 9 8 8 8 9 9 9 9 9 9 9 9 7 11
3 3 7 9 10 11 12 13 13 14 14 14 14 13 13 13 13 12 11 11 10 10 10 9 9 9 8 8 8 8 7 7 7 7 8 7 8 8 8 9 9 6 11
5 3 6 9 10 11 11 12 13 13 14 14 13 13 12 12 12 11 11 10 10 9 9 9 8 8 8 8 7 7 7 7 6 6 6 4 4 7 8 8 9 10 10
5 3 5 9 10 10 10 11 13 13 13 13 13 12 11 11 11 10 10 9 9 8 8 8 8 8 7 7 7 6 6 6 6 6 3 3 3 6 7 7 8 10 10
4 3 5 10 10 9 9 10 12 12 12 12 11 11 10 10 10 9 9 8 8 7 7 7 7 7 6 6 6 5 5 5 5 5 3 2 2 4 6 6 8 9 9
4 3 5 10 9 9 9 10 12 11 11 11 10 10 9 9 9 8 8 7 7 6 6 6 5 5 5 4 4 4 4 5 4 3 2 2 2 4 5 6 8 9 9
4 3 4 9 9 9 9 10 10 10 10 10 9 8 8 8 7 7 7 6 6 5 5 5 5 4 4 3 3 3 3 4 3 3 2 2 2 4 5 6 7 8 9
4 3 3 7 8 8 9 9 9 9 9 8 8 7 7 7 6 6 6 5 5 4 4 4 3 3 3 2 2 2 2 3 3 3 2 2 3 4 5 6 6 8 8
4 3 2 2 4 7 8 8 8 8 8 7 7 7 6 6 5 5 4 4 4 4 4 3 3 3 2 2 2 1 1 2 3 2 2 2 4 5 6 6 6 7 8
3 2 2 2 2 2 2 6 6 6 6 6 6 5 5 5 4 4 3 3 3 4 4 3 3 2 2 1 1 2 1 1 2 2 1 2 4 5 6 6 7 7 7
3 1 1 2 1 1 1 3 3 4 4 4 3 3 2 1 0 1 2 3 4 4 3 3 3 3 2 1 1 1 0 1 2 1 1 3 5 5 6 6 7 7 7
4 3 2 2 2 1 2 1 1 1 1 1 1 0 1 1 0 1 2 4 4 4 3 3 4 3 1 0 1 1 0 1 1 1 2 5 6 6 6 6 7 7 7
5 4 3 3 2 2 1 1 0 0 0 1 1 1 0 0 0 1 1 2 2 2 1 1 1 1 0 1 1 1 1 1 1 2 3 6 6 6 6 7 7 7 8
5 5 4 4 3 3 2 1 1 1 1 1 1 1 1 0 0 0 0 1 1 1 1 0 0 1 1 2 1 1 1 2 2 2 3 6 6 6 6 7 7 8 8
6 6 5 5 4 3 2 2 2 2 1 1 1 1 2 1 1 1 1 1 1 1 1 1 1 2 2 2 2 2 2 2 3 2 2 5 5 6 7 7 8 8 8
7 6 5 5 5 4 3 3 2 2 1 1 1 2 2 2 1 1 1 1 1 1 1 1 2 2 2 1 2 2 2 2 3 3 3 4 6 7 7 7 8 8 8
6 6 5 5 5 4 4 4 3 2 2 2 2 2 2 2 2 1 1 1 1 1 1 1 1 1 1 1 1 2 2 2 3 3 3 3 3 6 7 7 7 8 9
6 5 5 5 5 5 4 3 2 2 2 2 2 2 2 2 2 1 1 2 1 0 0 1 1 0 1 1 1 2 1 2 3 3 3 3 2 3 4 6 6 7 8
7 6 6 5 5 5 4 3 2 2 2 1 1 1 1 2 2 2 2 1 1 0 0 1 1 1 1 1 1 1 1 1 2 2 2 2 2 2 2 4 5 5 7
6 5 6 4 4 4 2 1 1 1 1 1 1 2 2 1 2 2 1 1 1 1 0 0 0 0 1 1 1 1 1 1 1 1 2 2 2 2 2 3 2 3 5
5 5 5 5 4 3 2 2 2 2 1 1 2 2 2 2 2 2 1 1 1 1 1 1 1 1 0 0 1 1 2 1 0 0 1 1 1 1 2 2 2 2 2
7 6 5 5 5 4 3 3 2 2 1 2 1 1 2 2 2 2 2 2 1 1 1 1 1 1 0 1 1 1 1 2 2 1 0 0 1 0 1 1 2 2 2
8 8 7 6 6 5 4 2 2 2 1 0 0 1 1 2 2 2 3 2 2 2 2 1 2 2 1 1 1 2 2 1 1 2 1 1 1 0 1 1 1 1 1
9 7 6 6 6 5 5 4 4 4 3 3 1 1 1 1 1 2 2 2 2 2 2 2 2 2 2 1 1 0 1 2 2 1 2 1 1 1 1 1 1 1 1
7 6 5 5 5 5 5 5 4 3 3 2 1 1 1 1 1 2 2 2 2 2 2 2 2 2 2 2 2 1 1 1 1 2 1 2 2 1 1 1 1 1 1
5 5 5 5 4 4 5 5 5 5 4 3 2 2 1 1 1 1 2 2 2 2 2 2 2 2 2 2 2 2 2 2 2 2 2 2 1 1 1 1 1 1 2
Wind_Direction
175 152 132 122 120 121 125 124 124 123 122 124 126 125 125 124 123 121 120 119 118 116 113 112 111 111 112 112 111 107 108 112 117 122 124 125 128 132 131 128 122 120 124
145 136 132 125 125 126 127 127 126 125 125 127 125 125 126 125 124 122 120 119 118 117 116 115 114 112 112 110 109 109 110 113 118 122 124 126 133 136 134 130 129 130 132
123 127 132 128 128 128 129 133 132 129 129 128 128 129 127 125 124 124 123 121 120 119 117 115 113 112 109 110 111 112 111 110 113 117 107 96 121 135 134 133 136 134 135
122 118 125 129 128 127 129 137 139 133 130 129 130 130 129 127 126 126 125 124 123 120 119 117 116 116 115 115 114 113 112 115 114 109 94 95 114 139 140 139 143 143 141
112 110 132 131 127 126 123 126 133 133 131 131 132 133 132 131 131 128 128 128 127 125 123 122 122 123 123 122 120 117 118 121 121 111 108 102 106 146 149 150 152 150 148
109 108 132 132 131 128 124 123 129 134 135 136 135 136 135 135 135 133 133 133 133 133 132 129 127 128 127 126 127 124 130 134 120 116 127 138 152 163 162 161 159 158 157
114 109 129 135 135 133 131 131 134 136 138 139 140 142 141 139 139 141 142 144 144 144 141 138 137 135 131 125 131 136 139 140 128 131 149 160 177 178 167 167 167 165 165
116 109 119 138 138 136 135 136 139 141 143 148 151 152 148 147 150 152 155 158 160 160 155 155 156 156 152 147 142 153 149 147 135 143 159 181 189 187 176 176 172 172 171
106 104 94 117 137 146 145 144 146 147 152 158 161 160 160 162 166 168 171 174 179 181 182 183 188 175 175 182 170 180 178 154 142 162 177 185 195 193 187 182 180 180 179
104 107 105 100 102 116 139 154 156 159 160 163 169 173 175 175 175 178 179 192 203 205 203 208 215 198 198 212 211 209 192 151 154 166 179 195 201 203 202 194 191 188 186
139 130 132 130 123 124 151 173 164 167 167 163 166 178 169 96 111 204 220 219 220 224 223 232 248 235 226 240 244 229 146 147 168 185 200 211 212 217 213 206 198 195 193
179 182 178 176 172 166 182 152 112 144 113 99 86 105 91 104 242 245 259 252 245 243 242 244 255 252 242 294 280 289 103 167 184 210 217 216 221 221 216 208 203 203 205
186 189 187 192 191 186 189 168 130 106 111 124 163 174 123 68 327 319 324 313 325 306 289 269 288 323 281 227 229 218 201 199 199 221 226 224 226 221 215 208 201 202 209
186 200 197 188 193 201 198 193 170 173 190 197 203 186 157 164 257 275 263 299 322 329 308 277 236 255 254 247 230 222 216 206 208 218 226 229 228 221 216 212 206 205 207
196 204 201 191 197 198 193 212 202 203 203 196 186 200 188 191 215 240 261 273 275 262 234 239 240 244 249 254 239 225 225 215 221 220 233 237 235 228 223 219 215 214 212
201 203 198 198 200 192 196 206 208 205 207 200 206 213 201 193 204 216 243 260 265 246 228 224 237 246 257 256 258 244 235 226 226 221 225 237 234 229 228 226 225 224 222
197 195 195 202 195 197 203 208 202 199 195 209 220 216 207 194 200 204 223 250 258 243 215 216 252 251 252 241 252 254 240 234 232 227 226 230 236 234 234 231 230 232 230
187 184 195 202 189 200 202 201 190 192 196 211 214 218 217 207 198 188 213 244 251 226 179 182 193 196 267 262 261 266 254 244 238 234 229 228 229 236 238 238 237 237 238
188 184 188 195 186 195 195 190 188 179 196 210 204 209 219 212 198 189 212 236 213 169 204 222 168 172 213 264 260 256 249 247 248 246 242 235 228 230 232 241 241 241 241
187 187 188 189 184 179 170 163 166 183 212 203 195 210 208 205 187 179 194 228 172 150 193 167 148 133 199 232 286 340 300 257 243 255 250 243 234 232 232 244 248 254 254
184 188 192 187 180 161 162 172 181 208 210 205 206 203 200 194 174 165 173 182 173 187 203 168 142 119 55 97 75 6 348 346 341 286 250 250 256 246 226 230 238 242 252
189 195 193 191 180 181 189 180 177 171 185 198 213 192 193 191 185 182 176 186 180 175 174 155 147 139 175 125 123 99 1 345 344 356 336 245 283 280 231 232 231 230 235
194 196 199 194 188 192 186 153 133 102 72 85 207 214 210 192 193 190 184 181 186 178 194 204 181 169 182 198 142 144 151 225 307 330 327 331 309 303 273 253 241 249 237
203 195 196 192 189 187 174 172 176 179 188 202 193 204 233 198 200 193 187 185 192 191 199 211 191 186 174 189 190 193 171 163 170 302 320 327 309 283 275 279 278 267 254
194 185 184 178 182 180 175 177 179 185 185 175 164 183 219 228 212 204 193 191 197 204 213 215 197 186 183 180 175 168 155 136 168 175 256 302 323 307 278 261 261 264 251
179 173 173 171 188 183 177 181 180 182 179 171 179 191 214 222 216 216 188 183 196 201 210 215 204 192 197 188 181 170 170 174 186 182 211 242 271 292 292 273 259 259 248